Location: Barcelona
(41.3830°N, 2.1830°E)
Time: 16:01:03
(UTC+02:00)

ISS - Pass Details

Date: 15 September 2019
Orbit: 411 x 421 km, 51.6° (Epoch: 18 September)

Event Time Altitude Azimuth Distance (km) Brightness Sun altitude
Exits shadow 05:32:39 49° 107° (ESE) 543 -3.0 -22.2°
Drops below altitude 10° 05:35:13 10° 121° (ESE) 1,486 -0.6 -21.7°
Sets 05:37:18 0° 123° (ESE) 2,347 0.5 -21.4°
